Saint Ignace, MI

6:15 AM EST on December 06, 2016 (GMT -0500)
Mackinac Island

Weather History for KMCD - June, 2014

Change the Weather History Date:

Sunday, June 8, 2014

  Actual Average Record
Temperature  
Mean Temperature 60 °F -  
Max Temperature 70 °F 63 °F 80 °F (2004)
Min Temperature 51 °F 47 °F 36 °F (1983)
Degree Days  
Heating Degree Days 4    
Growing Degree Days 10 (Base 50)    
Moisture  
Dew Point 46 °F    
Average Humidity 69    
Maximum Humidity 96    
Minimum Humidity 34    
Precipitation  
Precipitation 0.00 in - - ()
Sea Level Pressure  
Sea Level Pressure 29.99 in    
Wind  
Wind Speed 10 mph (North)    
Max Wind Speed 16 mph    
Max Gust Speed 23 mph    
Visibility 10 miles    
Events      
Averages and records for this station are not official NWS values.
T = Trace of Precipitation, MM = Missing Value Source: NWS Daily Summary

Daily Weather History Graph

Daily Weather History Graph

Search for Another Location

Airport or City:

Trip Planner

Search our weather history database for the weather conditions in past years. The results will help you decide how hot, cold, wet, or windy it might be!

Date:

Astronomy

Jun. 08, 2014 Rise Set
Actual Time 5:48 AM EDT 9:26 PM EDT
Civil Twilight 5:10 AM EDT 10:04 PM EDT
Nautical Twilight 4:20 AM EDT 10:55 PM EDT
Astronomical Twilight 3:12 AM EDT 12:03 AM EDT
Moon 4:30 PM EDT (6/8) 2:56 AM EDT (6/8)
Length of Visible Light 16h 53m
Length of Day
15h 37m
Waxing Gibbous, 77% of the Moon is Illuminated
Jun 8
Waxing Gibbous
Jun 13
Full
Jun 19
Last Quarter
Jun 27
New
Jul 5
First Quarter

Hourly Weather History & Observations

Time (EDT) Temp. Dew Point Humidity Pressure Visibility Wind Dir Wind Speed Gust Speed Precip Events Conditions
12:19 AM 56.3 °F 52.5 °F 87% 29.92 in 10.0 mi North 6.9 mph - N/A   Scattered Clouds
12:39 AM 55.6 °F 51.8 °F 87% 29.91 in 10.0 mi North 6.9 mph - N/A   Mostly Cloudy
12:59 AM 55.2 °F 51.6 °F 88% 29.92 in 10.0 mi North 8.1 mph - N/A   Mostly Cloudy
1:19 AM 54.3 °F 50.9 °F 88% 29.92 in 10.0 mi North 8.1 mph - N/A   Mostly Cloudy
1:39 AM 53.6 °F 50.5 °F 89% 29.92 in 10.0 mi North 10.4 mph - N/A   Mostly Cloudy
2:19 AM 52.7 °F 51.1 °F 94% 29.93 in 10.0 mi North 10.4 mph - N/A   Mostly Cloudy
2:39 AM 52.7 °F 51.4 °F 95% 29.93 in 10.0 mi North 10.4 mph - N/A   Overcast
2:59 AM 53.1 °F 51.8 °F 95% 29.93 in 10.0 mi North 9.2 mph - N/A   Overcast
3:19 AM 53.1 °F 52.0 °F 96% 29.93 in 10.0 mi North 11.5 mph 20.7 mph N/A   Overcast
3:59 AM 52.9 °F 51.8 °F 96% 29.93 in 10.0 mi North 10.4 mph 16.1 mph N/A   Overcast
4:19 AM 53.1 °F 51.4 °F 94% 29.92 in 10.0 mi North 12.7 mph 17.3 mph N/A   Overcast
4:39 AM 52.7 °F 51.1 °F 94% 29.93 in 10.0 mi North 10.4 mph 17.3 mph N/A   Scattered Clouds
4:59 AM 52.7 °F 50.9 °F 94% 29.93 in 10.0 mi North 11.5 mph 16.1 mph N/A   Clear
5:19 AM 52.3 °F 51.1 °F 95% 29.93 in 10.0 mi North 11.5 mph 16.1 mph N/A   Mostly Cloudy
5:39 AM 52.0 °F 50.9 °F 96% 29.94 in 10.0 mi North 10.4 mph 16.1 mph N/A   Scattered Clouds
5:59 AM 51.8 °F 50.5 °F 95% 29.94 in 10.0 mi North 12.7 mph 18.4 mph N/A   Scattered Clouds
6:19 AM 51.6 °F 50.2 °F 95% 29.95 in 10.0 mi North 10.4 mph - N/A   Mostly Cloudy
6:39 AM 51.4 °F 50.2 °F 95% 29.96 in 10.0 mi North 9.2 mph - N/A   Overcast
6:59 AM 51.8 °F 50.5 °F 95% 29.96 in 10.0 mi North 11.5 mph 17.3 mph N/A   Overcast
7:19 AM 51.8 °F 50.7 °F 96% 29.97 in 10.0 mi North 9.2 mph - N/A   Overcast
7:39 AM 52.0 °F 50.9 °F 96% 29.97 in 10.0 mi North 9.2 mph - N/A   Overcast
7:59 AM 52.3 °F 51.1 °F 95% 29.98 in 10.0 mi North 9.2 mph 17.3 mph N/A   Overcast
8:19 AM 52.7 °F 51.3 °F 95% 29.98 in 10.0 mi North 8.1 mph - N/A   Overcast
8:39 AM 52.9 °F 51.3 °F 94% 29.99 in 10.0 mi North 6.9 mph - N/A   Overcast
8:59 AM 54.1 °F 51.6 °F 91% 29.99 in 10.0 mi North 9.2 mph - N/A   Overcast
9:19 AM 54.7 °F 50.9 °F 87% 29.99 in 10.0 mi North 9.2 mph - N/A   Overcast
9:39 AM 55.2 °F 51.3 °F 87% 29.99 in 10.0 mi North 9.2 mph 18.4 mph N/A   Mostly Cloudy
9:59 AM 55.2 °F 50.9 °F 85% 29.99 in 10.0 mi North 12.7 mph 16.1 mph N/A   Scattered Clouds
10:20 AM 57.0 °F 51.6 °F 82% 29.99 in 10.0 mi North 11.5 mph 19.6 mph N/A   Scattered Clouds
10:39 AM 56.7 °F 51.4 °F 83% 29.99 in 10.0 mi North 10.4 mph 20.7 mph N/A   Mostly Cloudy
10:59 AM 58.8 °F 52.5 °F 80% 29.99 in 10.0 mi North 10.4 mph 20.7 mph N/A   Overcast
2:19 PM 69.1 °F 45.1 °F 42% 30.01 in 10.0 mi North 10.4 mph 18.4 mph N/A   Clear
2:39 PM 69.1 °F 44.8 °F 42% 30.01 in 10.0 mi North 10.4 mph 17.3 mph N/A   Clear
2:59 PM 69.1 °F 44.4 °F 41% 30.00 in 10.0 mi North 13.8 mph 19.6 mph N/A   Clear
3:19 PM 69.4 °F 44.6 °F 41% 30.00 in 10.0 mi North 13.8 mph 19.6 mph N/A   Clear
3:39 PM 69.8 °F 43.2 °F 38% 30.00 in 10.0 mi North 10.4 mph 19.6 mph N/A   Clear
4:00 PM 69.8 °F 41.9 °F 36% 30.00 in 10.0 mi North 13.8 mph 20.7 mph N/A   Clear
4:19 PM 70.0 °F 41.2 °F 35% 30.00 in 10.0 mi North 12.7 mph 19.6 mph N/A   Clear
4:40 PM 69.4 °F 39.7 °F 34% 30.00 in 10.0 mi North 12.7 mph 21.9 mph N/A   Clear
4:59 PM 68.9 °F 39.2 °F 34% 30.01 in 10.0 mi North 16.1 mph 23.0 mph N/A   Clear
5:19 PM 68.7 °F 39.0 °F 34% 30.00 in 10.0 mi North 13.8 mph 20.7 mph N/A   Clear
5:39 PM 68.9 °F 39.9 °F 35% 30.01 in 10.0 mi North 13.8 mph 21.9 mph N/A   Clear
5:59 PM 68.0 °F 39.7 °F 36% 30.01 in 10.0 mi North 12.7 mph 19.6 mph N/A   Clear
6:20 PM 67.8 °F 39.7 °F 36% 30.01 in 10.0 mi North 12.7 mph 19.6 mph N/A   Clear
6:39 PM 67.1 °F 39.0 °F 36% 30.01 in 10.0 mi North 12.7 mph 18.4 mph N/A   Clear
6:59 PM 66.7 °F 39.4 °F 37% 30.01 in 10.0 mi North 11.5 mph 17.3 mph N/A   Clear
7:20 PM 65.8 °F 39.7 °F 38% 30.01 in 10.0 mi North 12.7 mph 17.3 mph N/A   Clear
7:39 PM 64.8 °F 39.4 °F 39% 30.02 in 10.0 mi North 12.7 mph 19.6 mph N/A   Clear
7:59 PM 63.5 °F 40.8 °F 43% 30.02 in 10.0 mi North 15.0 mph 18.4 mph N/A   Clear
8:20 PM 61.9 °F 40.3 °F 45% 30.02 in 10.0 mi North 12.7 mph 19.6 mph N/A   Clear
8:39 PM 60.8 °F 40.3 °F 47% 30.02 in 10.0 mi North 11.5 mph 17.3 mph N/A   Clear
8:59 PM 60.1 °F 40.8 °F 49% 30.03 in 10.0 mi North 10.4 mph 18.4 mph N/A   Clear
9:20 PM 59.2 °F 40.5 °F 50% 30.03 in 10.0 mi North 11.5 mph 17.3 mph N/A   Clear
9:39 PM 58.3 °F 41.0 °F 53% 30.03 in 10.0 mi North 12.7 mph 19.6 mph N/A   Clear
9:59 PM 56.7 °F 41.9 °F 58% 30.04 in 10.0 mi North 10.4 mph 17.3 mph N/A   Clear
10:20 PM 55.4 °F 41.2 °F 59% 30.05 in 10.0 mi North 13.8 mph 17.3 mph N/A   Clear
10:39 PM 54.5 °F 40.1 °F 58% 30.06 in 10.0 mi North 10.4 mph 18.4 mph N/A   Clear
11:00 PM 53.4 °F 40.5 °F 61% 30.06 in 10.0 mi North 9.2 mph - N/A   Clear
11:19 PM 52.9 °F 39.4 °F 60% 30.06 in 10.0 mi NNW 9.2 mph - N/A   Clear
11:39 PM 52.2 °F 39.7 °F 63% 30.06 in 10.0 mi NNW 8.1 mph - N/A   Clear
11:59 PM 51.3 °F 39.0 °F 63% 30.07 in 10.0 mi NNW 8.1 mph - N/A   Clear